(237653) = 2001 SS167

Discovered at Socorro on 2001-09-19 by LINEAR.

Orbit

Orbit type: Main Belt

Note: WebGL enabled browser required.

epoch2024-03-31.0
epoch JD2460400.5
perihelion date2022-10-10.79558
perihelion JD2459863.29558
argument of perihelion (°)154.89342
ascending node (°)251.27513
inclination (°)3.37332
eccentricity0.2535538
perihelion distance (AU)1.7093396
Tisserand w.r.t. Jupiter3.6
ΔV w.r.t. Earth (km/sec)8.1
semimajor axis (AU)2.2899703
mean anomaly (°)152.79131
mean daily motion (°/day)0.28441930
aphelion distance (AU)2.871
period (years)3.47
P-vector [x]0.69184300
P-vector [y]0.65213875
P-vector [z]0.30994889
Q-vector [x]-0.71989426
Q-vector [y]0.65612467
Q-vector [z]0.22639052
absolute magnitude16.86
phase slope0.15
uncertainty0
referenceMPEC 2024-F14
observations used905
oppositions13
arc length (days)8238
first opposition used2001
last opposition used2024
residual rms (arc-secs)0.63
perturbers coarse indicatorM-v
perturbers precise indicator003Ek
first observation date used2001-08-27.0
last observation date used2024-03-17.0
computer nameMPCLINUX
JD of orbit computation2456847.780930
perihelion JD uncertainty (days)5.0806E-05
argument of perihelion uncertainty (°)1.0612E-04
ascending node uncertainty (°)1.0564E-04
inclination uncertainty (°)4.6239E-06
eccentricity uncertainty 5.5935E-08
perihelion distance uncertainty (AU)1.2512E-07
Minimum Orbit Intersection Distances (in AU)
for orbit epoch: 2460400.5, reference: E2024-F14
Mercury1.39157
Venus0.98829
Earth0.72
Mars0.21904
Jupiter2.52606
Saturn6.91763
Uranus15.7895
Neptune27.7693

Observations

929 total observations over interval: 2001 08 27.33033 – 2024 03 17.592020
These data are available for download (format description).

Date (UT) J2000 RA J2000 Dec Magn Location Ref
2001 08 27.33033 00 18 44.21 +09 10 38.8 18.6 R 699 – Lowell Observatory-LONEOS MPS 43974
2001 08 27.34988 00 18 43.99 +09 10 39.8   699 – Lowell Observatory-LONEOS MPS 43974
2001 08 27.36950 00 18 43.63 +09 10 42.1   699 – Lowell Observatory-LONEOS MPS 43974
2001 08 27.38910 00 18 43.33 +09 10 42.5   699 – Lowell Observatory-LONEOS MPS 43974
2001 09 10.26877 00 12 47.54 +08 58 29.6 18.3   644 – Palomar Mountain/NEAT MPS 36705
2001 09 10.29010 00 12 46.70 +08 58 26.1 18.1   644 – Palomar Mountain/NEAT MPS 36705
2001 09 10.31148 00 12 45.82 +08 58 22.4 18.2   644 – Palomar Mountain/NEAT MPS 36705
2001 09 18.29280 00 07 09.55 +08 28 10.0 17.9 R 699 – Lowell Observatory-LONEOS MPS 43974
2001 09 18.31624 00 07 08.39 +08 28 03.1   699 – Lowell Observatory-LONEOS MPS 43974
2001 09 18.33973 00 07 07.21 +08 27 56.4   699 – Lowell Observatory-LONEOS MPS 43974
2001 09 18.36324 00 07 06.05 +08 27 49.4   699 – Lowell Observatory-LONEOS MPS 43974
2001 09 19.32898 00 06 21.03 +08 23 06.7 18.1   704 – Lincoln Laboratory ETS, New Mexico MPS 36705
2001 09 19.34319 00 06 20.28 +08 23 02.2 18.6   704 – Lincoln Laboratory ETS, New Mexico MPS 36705
2001 09 19.38586 00 06 18.15 +08 22 49.4 18.4   704 – Lincoln Laboratory ETS, New Mexico MPS 36705
2001 09 20.25377 00 05 37.51 +08 18 24.4 17.7   704 – Lincoln Laboratory ETS, New Mexico MPS 36705
2001 09 20.26952 00 05 36.72 +08 18 19.7 18.1   704 – Lincoln Laboratory ETS, New Mexico MPS 36705
2001 09 20.28390 00 05 36.02 +08 18 15.6 18.4   704 – Lincoln Laboratory ETS, New Mexico MPS 36705
2001 09 20.29978 00 05 35.17 +08 18 10.5 18.3   704 – Lincoln Laboratory ETS, New Mexico MPS 36705
2001 09 20.31394 00 05 34.44 +08 18 05.8 18.2   704 – Lincoln Laboratory ETS, New Mexico MPS 36705
2001 09 22.25924 00 04 00.89 +08 07 35.7 18.1   704 – Lincoln Laboratory ETS, New Mexico MPS 43974
2001 09 22.27423 00 04 00.14 +08 07 30.8 18.3   704 – Lincoln Laboratory ETS, New Mexico MPS 43974
2001 09 22.28846 00 03 59.37 +08 07 25.9 18.2   704 – Lincoln Laboratory ETS, New Mexico MPS 43974
2001 09 22.30279 00 03 58.61 +08 07 21.0 18.1   704 – Lincoln Laboratory ETS, New Mexico MPS 43974
2001 09 23.25307 00 03 12.48 +08 01 57.1 17.9   704 – Lincoln Laboratory ETS, New Mexico MPS 43974
2001 09 23.25318 00 03 12.44 +08 01 56.9 18.1   704 – Lincoln Laboratory ETS, New Mexico MPS 43974
2001 09 23.26819 00 03 11.69 +08 01 52.0 18.1   704 – Lincoln Laboratory ETS, New Mexico MPS 43974
2001 09 23.26830 00 03 11.64 +08 01 51.7 18.3   704 – Lincoln Laboratory ETS, New Mexico MPS 43974
2001 09 23.28249 00 03 10.69 +08 01 47.2 19.3   704 – Lincoln Laboratory ETS, New Mexico MPS 43974
2001 09 23.29783 00 03 10.15 +08 01 41.4 18.3   704 – Lincoln Laboratory ETS, New Mexico MPS 43974
2001 09 23.29794 00 03 10.11 +08 01 41.1 18.2   704 – Lincoln Laboratory ETS, New Mexico MPS 43974
2001 09 25.22953 00 01 35.46 +07 50 11.4 17.6 R 699 – Lowell Observatory-LONEOS MPS 46612
2001 09 25.25137 00 01 34.29 +07 50 03.4   699 – Lowell Observatory-LONEOS MPS 46612
2001 09 25.27322 00 01 33.11 +07 49 55.1   699 – Lowell Observatory-LONEOS MPS 46612
2001 09 25.29509 00 01 31.97 +07 49 47.2   699 – Lowell Observatory-LONEOS MPS 46612
2001 09 28.23090 23 59 07.71 +07 31 12.0 17.6   644 – Palomar Mountain/NEAT MPS 36705
2001 09 28.24603 23 59 06.81 +07 31 06.7 17.5   704 – Lincoln Laboratory ETS, New Mexico MPS 36705
2001 09 28.25209 23 59 06.60 +07 31 03.6 18.1   644 – Palomar Mountain/NEAT MPS 36705
2001 09 28.26142 23 59 06.00 +07 31 00.5 17.8   704 – Lincoln Laboratory ETS, New Mexico MPS 36705
2001 09 28.27258 23 59 05.51 +07 30 55.6 18.5   644 – Palomar Mountain/NEAT MPS 36705
2001 09 28.27644 23 59 05.19 +07 30 54.8 17.9   704 – Lincoln Laboratory ETS, New Mexico MPS 36705
2001 09 28.29159 23 59 04.39 +07 30 48.8 17.8   704 – Lincoln Laboratory ETS, New Mexico MPS 36705
2001 09 28.30662 23 59 03.60 +07 30 42.8 17.7   704 – Lincoln Laboratory ETS, New Mexico MPS 36705
2001 10 05.30894 23 53 32.32 +06 42 34.6 17.4   644 – Palomar Mountain/NEAT MPS 38251
2001 10 05.33053 23 53 31.28 +06 42 25.5 17.7   644 – Palomar Mountain/NEAT MPS 38251
2001 10 05.35357 23 53 30.14 +06 42 15.6 17.6   644 – Palomar Mountain/NEAT MPS 38251
2001 10 14.17351 23 47 43.68 +05 39 48.0 18.0   704 – Lincoln Laboratory ETS, New Mexico MPS 38251
2001 10 14.18924 23 47 43.11 +05 39 41.5 18.1   704 – Lincoln Laboratory ETS, New Mexico MPS 38251
2001 10 14.20497 23 47 42.54 +05 39 35.2 18.4   704 – Lincoln Laboratory ETS, New Mexico MPS 38251
2001 10 14.22072 23 47 41.97 +05 39 28.7 18.4   704 – Lincoln Laboratory ETS, New Mexico MPS 38251
2001 10 14.23649 23 47 41.41 +05 39 22.5 18.6   704 – Lincoln Laboratory ETS, New Mexico MPS 38251
2001 10 16.24151 23 46 39.41 +05 25 44.8 18.5   704 – Lincoln Laboratory ETS, New Mexico MPS 38251
2001 10 16.25722 23 46 38.89 +05 25 38.2 18.7   704 – Lincoln Laboratory ETS, New Mexico MPS 38251
2001 10 16.27295 23 46 38.32 +05 25 32.3 18.7   704 – Lincoln Laboratory ETS, New Mexico MPS 38251
2001 10 16.28867 23 46 37.88 +05 25 25.4 18.5   704 – Lincoln Laboratory ETS, New Mexico MPS 38251
2001 10 16.30441 23 46 37.36 +05 25 19.2 18.3   704 – Lincoln Laboratory ETS, New Mexico MPS 38251
2001 10 21.16977 23 44 40.81 +04 54 17.2 18.8   704 – Lincoln Laboratory ETS, New Mexico MPS 40601
2001 10 21.18603 23 44 40.42 +04 54 10.6 18.9   704 – Lincoln Laboratory ETS, New Mexico MPS 40601
2001 10 21.20205 23 44 40.11 +04 54 05.1 19.2   704 – Lincoln Laboratory ETS, New Mexico MPS 40601
2001 10 21.21888 23 44 39.70 +04 53 59.2 18.9   704 – Lincoln Laboratory ETS, New Mexico MPS 40601
2001 10 21.23522 23 44 39.32 +04 53 52.5 19.1   704 – Lincoln Laboratory ETS, New Mexico MPS 40601
2001 10 23.17499 23 44 07.16 +04 42 33.1 17.9 R 699 – Lowell Observatory-LONEOS MPS 40601
2001 10 23.19862 23 44 06.70 +04 42 25.2   699 – Lowell Observatory-LONEOS MPS 40601
2001 10 23.22205 23 44 06.28 +04 42 17.4   699 – Lowell Observatory-LONEOS MPS 40601
2001 10 23.24548 23 44 05.86 +04 42 09.3   699 – Lowell Observatory-LONEOS MPS 40601
2001 10 25.11878 23 43 43.30 +04 31 51.6 18.7   644 – Palomar Mountain/NEAT MPS 40601
2001 10 25.12925 23 43 43.15 +04 31 48.6 19.3   644 – Palomar Mountain/NEAT MPS 40601
2001 10 25.13982 23 43 43.01 +04 31 45.1 18.3   644 – Palomar Mountain/NEAT MPS 40601
2001 11 10.23088 23 46 01.43 +03 35 10.2 19.0   704 – Lincoln Laboratory ETS, New Mexico MPS 40601
2001 11 10.24593 23 46 01.81 +03 35 08.7 19.8   704 – Lincoln Laboratory ETS, New Mexico MPS 40601
2001 11 10.26045 23 46 02.18 +03 35 07.3 19.7   704 – Lincoln Laboratory ETS, New Mexico MPS 40601
2001 11 10.27499 23 46 02.52 +03 35 05.9 19.4   704 – Lincoln Laboratory ETS, New Mexico MPS 40601
2001 11 17.08518 23 50 01.89 +03 30 17.5 19.2 R 699 – Lowell Observatory-LONEOS MPS 41961
2001 11 17.11016 23 50 02.83 +03 30 16.3   699 – Lowell Observatory-LONEOS MPS 41961
2001 11 17.13519 23 50 03.83 +03 30 16.7   699 – Lowell Observatory-LONEOS MPS 41961
2001 11 17.16034 23 50 04.88 +03 30 17.0   699 – Lowell Observatory-LONEOS MPS 41961
2001 11 18.14651 23 50 47.96 +03 30 34.5 19.3   704 – Lincoln Laboratory ETS, New Mexico MPS 41961
2001 11 18.16132 23 50 48.59 +03 30 34.6 19.7   704 – Lincoln Laboratory ETS, New Mexico MPS 41961
2001 11 18.17608 23 50 49.19 +03 30 35.1 19.8   704 – Lincoln Laboratory ETS, New Mexico MPS 41961
2001 11 18.19086 23 50 49.83 +03 30 35.5 19.5   704 – Lincoln Laboratory ETS, New Mexico MPS 41961
2001 11 18.20564 23 50 50.43 +03 30 36.5 19.8   704 – Lincoln Laboratory ETS, New Mexico MPS 41961
2003 04 08.32556 12 50 47.86 -10 09 00.5 20.7 V 691 – Steward Observatory, Kitt Peak-Spacewatch MPS 178266
2003 04 08.35248 12 50 46.24 -10 08 49.5 20.6 V 691 – Steward Observatory, Kitt Peak-Spacewatch MPS 178266
2003 04 08.37979 12 50 44.65 -10 08 38.5 20.6 V 691 – Steward Observatory, Kitt Peak-Spacewatch MPS 178266
2006 01 23.34345 10 05 46.95 +05 58 19.4 19.9   704 – Lincoln Laboratory ETS, New Mexico MPS 161646
2006 01 23.38121 10 05 44.96 +05 58 25.4 20.0   704 – Lincoln Laboratory ETS, New Mexico MPS 161646
2006 01 23.39384 10 05 44.28 +05 58 28.0 20.2   704 – Lincoln Laboratory ETS, New Mexico MPS 161646
